GW3793 Weather Reports


time (UTC)temp
C
wind
direction
speed
KPH
gust
KPH
rain 1hr
cm
rain 24hr
cm
rain mn
cm
humidity
%
barometer
mb
20260506145403 11 231 0.0 3.2 0.00 0.00 0.00 59 1013.9
20260506144503 11 209 0.0 6.4 0.00 0.00 0.00 62 1014.1
20260506143603 10 167 0.0 3.2 0.00 0.00 0.00 68 1014.0
20260506142703 9 177 0.0 3.2 0.00 0.00 0.00 71 1013.7
20260506141803 8 216 0.0 1.6 0.00 0.00 0.00 72 1013.7
20260506140903 7 171 1.6 3.2 0.00 0.00 0.00 75 1013.9
20260506140004 6 167 0.0 3.2 0.00 0.00 0.00 76 1013.8
20260506135403 6 159 0.0 3.2 0.00 0.00 0.00 77 1013.8
20260506134717 5 143 0.0 3.2 0.00 0.00 0.00 77 1013.4
20260506133603 5 23 0.0 3.2 0.00 0.00 0.00 79 1013.7
20260506132703 5 136 0.0 1.6 0.00 0.00 0.00 79 1013.5
20260506131803 5 136 0.0 3.2 0.00 0.00 0.00 78 1013.7
20260506131117 4 121 0.0 3.2 0.00 0.00 0.00 77 1013.5
20260506130003 4 126 0.0 3.2 0.00 0.00 0.00 77 1013.4
20260506125403 4 0 0.0 0.0 0.00 0.00 0.00 77 1013.2
20260506124503 4 18 0.0 1.6 0.00 0.00 0.00 77 1013.4
20260506123603 4 35 0.0 1.6 0.00 0.00 0.00 77 1013.4
20260506122703 4 0 0.0 0.0 0.00 0.00 0.00 77 1013.4
20260506121803 4 0 0.0 0.0 0.00 0.00 0.00 76 1013.0
20260506120903 5 120 0.0 3.2 0.00 0.00 0.00 76 1013.2
20260506120003 5 113 0.0 3.2 0.00 0.00 0.00 75 1013.0
20260506115404 5 23 0.0 1.6 0.00 0.00 0.00 74 1013.4
20260506114503 5 21 0.0 1.6 0.00 0.00 0.00 74 1013.3
20260506113818 5 122 1.6 3.2 0.00 0.00 0.00 74 1013.3
20260506112704 5 19 0.0 1.6 0.00 0.00 0.00 73 1013.2
20260506111803 5 6 0.0 4.8 0.00 0.00 0.00 74 1013.2
20260506110903 5 218 0.0 1.6 0.00 0.00 0.00 72 1013.2
20260506110004 5 99 0.0 3.2 0.00 0.00 0.00 72 1012.8
20260506105403 5 79 0.0 3.2 0.00 0.00 0.00 73 1012.9
20260506104503 5 346 1.6 6.4 0.00 0.00 0.00 74 1012.9
20260506103603 5 354 0.0 6.4 0.00 0.00 0.00 74 1013.0
20260506102703 5 156 0.0 3.2 0.00 0.00 0.00 73 1013.0
20260506101803 6 140 0.0 1.6 0.00 0.00 0.00 70 1012.8
20260506100903 6 27 0.0 1.6 0.00 0.00 0.00 69 1012.9
20260506100004 6 101 0.0 3.2 0.00 0.00 0.00 69 1012.8
20260506095617 6 111 0.0 3.2 0.00 0.00 0.00 69 1013.0
20260506094503 6 2 0.0 3.2 0.00 0.00 0.00 69 1012.6
20260506093603 6 56 0.0 3.2 0.00 0.00 0.00 68 1012.9
20260506092703 6 163 0.0 3.2 0.00 0.00 0.00 66 1013.1
20260506091803 6 164 0.0 1.6 0.00 0.00 0.00 64 1012.9
20260506090903 6 162 0.0 3.2 0.00 0.00 0.00 63 1012.6
20260506090004 7 134 0.0 3.2 0.00 0.00 0.00 62 1012.6
20260506085618 7 158 0.0 3.2 0.00 0.00 0.00 62 1012.8
20260506084718 7 113 1.6 4.8 0.00 0.00 0.00 61 1012.8
20260506083604 7 23 0.0 4.8 0.00 0.00 0.00 61 1013.0
20260506082703 7 4 0.0 3.2 0.00 0.00 0.00 62 1012.9
20260506081803 7 5 0.0 3.2 0.00 0.00 0.00 61 1012.5
20260506080903 7 44 0.0 3.2 0.00 0.00 0.00 61 1012.9
20260506072703 8 123 0.0 4.8 0.00 0.00 0.00 59 1012.6
20260506071803 8 132 0.0 4.8 0.00 0.00 0.00 59 1012.6
20260506071117 8 0 0.0 0.0 0.00 0.00 0.00 58 1012.6
20260506061803 9 173 0.0 3.2 0.00 0.00 0.00 54 1012.2
20260506060903 10 162 0.0 4.8 0.00 0.00 0.00 52 1012.2
20260506050903 11 40 0.0 3.2 0.00 0.00 0.00 48 1012.3
20260506044718 12 0 0.0 0.0 0.00 0.00 0.00 45 1012.3
20260506043603 12 5 0.0 1.6 0.00 0.00 0.00 44 1012.3
20260506042703 12 0 0.0 0.0 0.00 0.00 0.00 45 1012.4
20260506041804 12 351 0.0 3.2 0.00 0.00 0.00 45 1012.4
20260506040903 13 0 0.0 0.0 0.00 0.00 0.00 45 1012.3
20260506040003 13 350 0.0 3.2 0.00 0.00 0.00 44 1012.2
20260506035616 13 350 0.0 3.2 0.00 0.00 0.00 44 1012.3
20260506034503 14 347 1.6 3.2 0.00 0.00 0.00 43 1012.2
20260506033603 14 354 1.6 3.2 0.00 0.00 0.00 41 1012.3
20260506032703 15 355 1.6 3.2 0.00 0.00 0.00 39 1012.1
20260506032018 15 360 0.0 3.2 0.00 0.00 0.00 38 1012.2
20260506030904 16 1 0.0 3.2 0.00 0.00 0.00 35 1012.2
20260506030003 17 5 0.0 3.2 0.00 0.00 0.00 34 1012.0
20260506025403 17 358 0.0 4.8 0.00 0.00 0.00 33 1012.1
20260506024503 18 211 0.0 4.8 0.00 0.00 0.00 31 1012.3
20260506023603 18 326 0.0 8.0 0.00 0.00 0.00 30 1012.2
20260506022703 19 280 1.6 8.0 0.00 0.00 0.00 29 1012.3
20260506021803 19 269 1.6 3.2 0.00 0.00 0.00 29 1012.2
20260506020903 19 170 0.0 3.2 0.00 0.00 0.00 29 1012.4
20260506020003 20 260 1.6 4.8 0.00 0.00 0.00 29 1012.4
20260506015403 20 293 1.6 6.4 0.00 0.00 0.00 28 1012.2
20260506014503 20 269 1.6 6.4 0.00 0.00 0.00 27 1012.1
20260506013603 20 307 1.6 6.4 0.00 0.00 0.00 26 1012.3
20260506012703 20 321 1.6 8.0 0.00 0.00 0.00 26 1012.2
20260506012017 20 334 1.6 11.3 0.00 0.00 0.00 27 1012.3
20260506011119 20 317 1.6 11.3 0.00 0.00 0.00 27 1012.4
20260506010218 20 23 1.6 6.4 0.00 0.00 0.00 26 1012.4
20260506005617 20 210 1.6 6.4 0.00 0.00 0.00 27 1012.5
20260506004717 20 302 1.6 11.3 0.00 0.00 0.00 26 1012.5
20260506003603 21 354 3.2 9.7 0.00 0.00 0.00 23 1012.3
20260506002703 21 321 1.6 11.3 0.00 0.00 0.00 25 1012.6
20260506001803 21 294 3.2 8.0 0.00 0.00 0.00 23 1012.4
20260506000903 21 217 1.6 6.4 0.00 0.00 0.00 26 1013.0
20260506000219 21 239 1.6 6.4 0.00 0.00 0.00 27 1012.9
20260505235617 21 263 3.2 6.4 0.00 0.00 0.00 26 1012.8
20260505234503 21 290 1.6 4.8 0.00 0.00 0.00 25 1013.2
20260505233818 21 278 1.6 6.4 0.00 0.00 0.00 26 1013.2
20260505232703 21 232 3.2 8.0 0.00 0.00 0.00 27 1013.3
20260505232018 21 178 4.8 14.5 0.00 0.00 0.00 25 1013.4
20260505230903 21 187 4.8 16.1 0.00 0.00 0.00 26 1013.4
20260505230003 21 252 3.2 12.9 0.00 0.00 0.00 26 1013.3
20260505225403 22 237 3.2 8.0 0.00 0.00 0.00 26 1013.5
20260505224718 22 244 3.2 9.7 0.00 0.00 0.00 27 1013.5
20260505223817 22 224 3.2 9.7 0.00 0.00 0.00 26 1013.8
20260505222703 22 235 3.2 12.9 0.00 0.00 0.00 26 1013.7
20260505222018 22 213 3.2 16.1 0.00 0.00 0.00 26 1013.9
20260505220903 22 244 3.2 8.0 0.00 0.00 0.00 27 1013.9
20260505220003 22 217 3.2 11.3 0.00 0.00 0.00 26 1014.2
20260505215403 22 201 3.2 9.7 0.00 0.00 0.00 26 1014.1
20260505214503 22 198 4.8 11.3 0.00 0.00 0.00 27 1014.3
20260505213603 22 209 3.2 9.7 0.00 0.00 0.00 27 1014.3
20260505212703 22 176 4.8 11.3 0.00 0.00 0.00 26 1014.2
20260505211803 22 184 4.8 12.9 0.00 0.00 0.00 28 1014.6
20260505210903 22 193 3.2 12.9 0.00 0.00 0.00 29 1014.8
20260505210003 21 233 3.2 6.4 0.00 0.00 0.00 30 1014.6
20260505205404 21 206 4.8 11.3 0.00 0.00 0.00 30 1014.8
20260505204503 21 254 1.6 6.4 0.00 0.00 0.00 31 1015.0
20260505203604 20 262 3.2 9.7 0.00 0.00 0.00 32 1014.9
20260505202703 20 261 3.2 8.0 0.00 0.00 0.00 31 1015.0
20260505201803 20 218 3.2 8.0 0.00 0.00 0.00 32 1015.1
20260505201116 20 270 3.2 8.0 0.00 0.00 0.00 30 1014.9
20260505200218 21 213 3.2 8.0 0.00 0.00 0.00 29 1014.9
20260505195403 21 176 3.2 9.7 0.00 0.00 0.00 32 1015.0
20260505194503 21 179 6.4 11.3 0.00 0.00 0.00 31 1015.2
20260505193603 21 183 6.4 11.3 0.00 0.00 0.00 33 1015.2
20260505192703 21 175 6.4 14.5 0.00 0.00 0.00 32 1015.3
20260505191803 20 171 6.4 14.5 0.00 0.00 0.00 32 1015.3
20260505190903 20 179 6.4 14.5 0.00 0.00 0.00 31 1015.3
20260505190004 20 175 4.8 11.3 0.00 0.00 0.00 33 1015.7
20260505185403 20 174 4.8 12.9 0.00 0.00 0.00 35 1015.6
20260505184503 19 168 4.8 12.9 0.00 0.00 0.00 32 1015.6
20260505183603 18 166 4.8 11.3 0.00 0.00 0.00 33 1015.6
20260505182703 19 195 4.8 11.3 0.00 0.00 0.00 35 1015.8
20260505181803 19 167 4.8 16.1 0.00 0.00 0.00 33 1015.7
20260505180903 19 174 6.4 11.3 0.00 0.00 0.00 35 1015.8
20260505180003 18 169 6.4 14.5 0.00 0.00 0.00 35 1015.9
20260505175403 18 169 6.4 11.3 0.00 0.00 0.00 35 1016.2
20260505174503 18 167 6.4 11.3 0.00 0.00 0.00 36 1015.8
20260505173603 17 161 4.8 9.7 0.00 0.00 0.00 35 1015.8
20260505172703 17 176 6.4 11.3 0.00 0.00 0.00 33 1015.9
20260505171803 17 177 6.4 11.3 0.00 0.00 0.00 36 1016.0
20260505170903 17 162 6.4 9.7 0.00 0.00 0.00 34 1016.2
20260505170003 16 173 4.8 9.7 0.00 0.00 0.00 38 1016.0
20260505165403 16 170 4.8 9.7 0.00 0.00 0.00 38 1016.2
20260505164718 16 174 4.8 9.7 0.00 0.00 0.00 38 1015.9
20260505163603 15 164 4.8 9.7 0.00 0.00 0.00 42 1016.1
20260505162703 15 164 4.8 9.7 0.00 0.00 0.00 43 1016.2
20260505161803 15 168 6.4 11.3 0.00 0.00 0.00 43 1016.2
20260505160903 15 169 6.4 11.3 0.00 0.00 0.00 44 1016.1
20260505152703 13 160 3.2 8.0 0.00 0.00 0.00 52 1016.4
20260505151803 12 142 3.2 9.7 0.00 0.00 0.00 50 1015.9
20260505150903 11 173 4.8 8.0 0.00 0.00 0.00 60 1016.0